{"data":{"norad_id":63681,"epoch":"2026-09-18T15:09:31.416768Z","epoch_age_seconds":314072,"freshness":"STALE","line1":"1 63681U 25085T   26261.63161362  .00019690  00000+0  72232-3 0  9992","line2":"2 63681  43.0025  20.7817 0001450 273.2663  86.8023 15.27616512 78383","mean_motion":15.27616512,"eccentricity":0.000145,"inclination_deg":43.0025,"raan_deg":20.7817,"arg_perigee_deg":273.2663,"mean_anomaly_deg":86.8023,"bstar":0.00072232,"rev_number":7838,"period_min":94.264495617078,"perigee_km":481.94491202276,"apogee_km":483.93462428553,"semimajor_km":6861.0767681541,"source":"CELESTRAK","updated_at":"2026-09-21T09:00:35.060545Z"}}